Regional Weather Roundup
Issued by NWS Little Rock, AR

Home | Current Version | Previous Version | Text Only | Print | Product List | Glossary On
Versions: 1 2 3 4 5 6 7 8 9 10 11 12 13 14 15 16 17 18 19 20 21 22 23 24 25 26 27 28 29 30 31 32 33 34 35 36 37 38 39 40 41 42 43 44 45 46 47 48 49 50
000
ASUS44 KLZK 211605
RWRLZK

WEATHER ROUNDUP FOR ARKANSAS
NATIONAL WEATHER SERVICE LITTLE ROCK AR
1100 AM CDT THU AUG 21 2014

NOTE: "FAIR" INDICATES FEW OR NO CLOUDS BELOW 12,000 FEET WITH NO
SIGNIFICANT WEATHER AND/OR OBSTRUCTIONS TO VISIBILITY.

ARZ001-003-010-029-211700-
NORTHWEST ARKANSAS

CITY           SKY/WX    TMP DP  RH WIND       PRES   REMARKS
FAYETTEVILLE   MOSUNNY   85  70  60 S13G20    30.08R HX  89
FORT SMITH     SUNNY     87  70  56 SW13G20   30.05R HX  92
HARRISON       SUNNY     85  70  60 SW14G20   30.09R HX  89
BENTONVILLE    MOSUNNY   86  68  54 SW14G22   30.08R HX  89
ROGERS         MOSUNNY   87  67  51 SW14      30.08R HX  90
SILOAM SPGS    SUNNY     84  68  58 SW17G23   30.07S HX  87
HIGHFILL       MOSUNNY   85  69  58 S15G22    30.07R HX  89
SPRINGDALE     MOSUNNY   86  68  54 S16G23    30.09S HX  89
$$

ARZ004-005-016-211700-
NORTH CENTRAL ARKANSAS

CITY           SKY/WX    TMP DP  RH WIND       PRES   REMARKS
BATESVILLE     SUNNY     90  73  58 SW12G18   30.08S HX  98
FLIPPIN        SUNNY     88  70  55 SW9       30.06S HX  92
MTN HOME       SUNNY     88  71  57 SW8G20    30.06S HX  94
$$

ARZ040-041-211700-
WEST CENTRAL ARKANSAS

CITY           SKY/WX    TMP DP  RH WIND       PRES   REMARKS
MENA           PTSUNNY   82  73  74 SW3       30.13R HX  88
MOUNT IDA      MOSUNNY   83  71  67 VRB7G18   30.09R HX  87
$$

ARZ009-017-025-026-028-211700-
NORTHEAST ARKANSAS

CITY           SKY/WX    TMP DP  RH WIND       PRES   REMARKS
CORNING        FAIR      88  73  62 SW12      30.07S HX  96
JONESBORO      SUNNY     87  74  64 SW14      30.08S HX  95
NEWPORT        SUNNY     90  76  63 S9        30.09R HX 101
WALNUT RIDGE   SUNNY     88  73  62 SW13      30.06S HX  96
BLYTHEVILLE    SUNNY     85  76  74 SW12      30.10R HX  94
$$

ARZ022-023-033-042-044-211700-
CENTRAL ARKANSAS

CITY           SKY/WX    TMP DP  RH WIND       PRES   REMARKS
LITTLE ROCK    MOSUNNY   86  72  62 SW13      30.09S HX  92
N LITTLE ROCK  MOSUNNY   85  74  68 SW10      30.09S HX  92
JACKSONVILLE   SUNNY     86  72  62 SW10      30.09S HX  92
SEARCY           N/A     88  74  63 CALM        N/A  HX  96
HOT SPRINGS    SUNNY     83  73  72 W9        30.11R HX  89
RUSSELLVILLE   SUNNY     86  72  62 VRB5      30.08R HX  92
CLINTON        FAIR      88  73  62 SW7       30.10R HAZE    HX  96
$$

ARZ036-211700-
EAST ARKANSAS

CITY           SKY/WX    TMP DP  RH WIND       PRES   REMARKS
WEST MEMPHIS   MOSUNNY   86  77  74 SW8       30.10S HX  97
$$

ARZ050-053-066-070-073-211700-
SOUTHWEST ARKANSAS

CITY           SKY/WX    TMP DP  RH WIND       PRES   REMARKS
ARKADELPHIA    FAIR      85  76  74 SW7       30.11S HX  94
CAMDEN         MOSUNNY   86  73  66 W8        30.10S HX  93
TEXARKANA      PTSUNNY   85  74  69 SW14      30.11R HX  92
EL DORADO      SUNNY     85  76  74 S7        30.12S HX  94
DE QUEEN       PTSUNNY   82  74  76 SW9       30.08S HX  88
$$

ARZ056-057-069-211700-
SOUTHEAST ARKANSAS

CITY           SKY/WX    TMP DP  RH WIND       PRES   REMARKS
PINE BLUFF     SUNNY     86  74  67 SW10      30.11S HX  94
STUTTGART      PTSUNNY   88  77  70 SW13      30.12R HX 100
MONTICELLO     PTSUNNY   87  76  69 W8        30.11S HX  97

$$




USA.gov is the U.S. government's official web portal to all federal, state and local government web resources and services.